TimePDT,TemperatureF,Dew PointF,Humidity,Sea Level PressureIn,VisibilityMPH,Wind Direction,Wind SpeedMPH,Gust SpeedMPH,PrecipitationIn,Events,Conditions,WindDirDegrees,DateUTC
12:15 AM,73.4,50.0,44,29.85,10.0,ESE,3.5,-,N/A,,Clear,110,2013-09-15 07:15:00
12:35 AM,73.4,50.0,44,29.85,10.0,Calm,Calm,-,N/A,,Clear,0,2013-09-15 07:35:00
12:55 AM,73.4,50.0,44,29.85,10.0,Calm,Calm,-,N/A,,Clear,0,2013-09-15 07:55:00
1:15 AM,73.4,48.2,41,29.85,10.0,Calm,Calm,-,N/A,,Clear,0,2013-09-15 08:15:00
1:35 AM,71.6,48.2,43,29.85,10.0,Calm,Calm,-,N/A,,Clear,0,2013-09-15 08:35:00
1:55 AM,71.6,48.2,43,29.85,10.0,Calm,Calm,-,N/A,,Clear,0,2013-09-15 08:55:00
2:15 AM,71.6,48.2,43,29.85,10.0,Calm,Calm,-,N/A,,Clear,0,2013-09-15 09:15:00
2:35 AM,71.6,48.2,43,29.85,10.0,ESE,3.5,-,N/A,,Clear,120,2013-09-15 09:35:00
2:55 AM,71.6,48.2,43,29.85,10.0,SE,3.5,-,N/A,,Clear,130,2013-09-15 09:55:00
3:15 AM,71.6,48.2,43,29.85,10.0,ESE,4.6,-,N/A,,Clear,120,2013-09-15 10:15:00
3:35 AM,71.6,48.2,43,29.85,10.0,ESE,5.8,-,N/A,,Clear,120,2013-09-15 10:35:00
3:55 AM,71.6,48.2,43,29.84,10.0,ESE,8.1,-,N/A,,Clear,110,2013-09-15 10:55:00
4:15 AM,71.6,48.2,43,29.84,10.0,ESE,8.1,-,N/A,,Clear,110,2013-09-15 11:15:00
4:35 AM,71.6,48.2,43,29.84,10.0,ESE,5.8,-,N/A,,Clear,120,2013-09-15 11:35:00
4:55 AM,71.6,48.2,43,29.84,10.0,ESE,5.8,-,N/A,,Clear,120,2013-09-15 11:55:00
5:15 AM,71.6,48.2,43,29.85,10.0,Calm,Calm,-,N/A,,Clear,0,2013-09-15 12:15:00
5:35 AM,68.0,48.2,49,29.85,10.0,SE,3.5,-,N/A,,Clear,130,2013-09-15 12:35:00
5:55 AM,68.0,48.2,49,29.85,10.0,ESE,3.5,-,N/A,,Clear,120,2013-09-15 12:55:00
6:15 AM,68.0,46.4,46,29.85,10.0,SE,4.6,-,N/A,,Clear,130,2013-09-15 13:15:00
6:35 AM,68.0,44.6,43,29.86,10.0,ESE,4.6,-,N/A,,Clear,120,2013-09-15 13:35:00
6:55 AM,68.0,44.6,43,29.86,10.0,ESE,5.8,-,N/A,,Clear,120,2013-09-15 13:55:00
7:10 AM,66.2,44.6,46,29.87,10.0,Calm,Calm,-,N/A,,Clear,0,2013-09-15 14:10:00
10:10 AM,73.4,35.6,25,29.90,10.0,SE,5.8,-,N/A,,Clear,140,2013-09-15 17:10:00
10:35 AM,75.2,32.0,21,29.92,10.0,Calm,Calm,-,N/A,,Clear,0,2013-09-15 17:35:00
10:55 AM,75.2,30.2,19,29.92,10.0,SSW,4.6,-,N/A,,Clear,210,2013-09-15 17:55:00
11:15 AM,77.0,28.4,17,29.92,10.0,SSW,4.6,-,N/A,,Clear,200,2013-09-15 18:15:00
11:35 AM,77.0,26.6,16,29.92,10.0,SSE,8.1,-,N/A,,Clear,160,2013-09-15 18:35:00
11:55 AM,80.6,28.4,15,29.92,10.0,South,6.9,-,N/A,,Clear,190,2013-09-15 18:55:00
12:15 PM,78.8,30.2,17,29.92,10.0,South,3.5,-,N/A,,Clear,180,2013-09-15 19:15:00
12:35 PM,80.6,32.0,17,29.93,10.0,SSW,5.8,-,N/A,,Clear,200,2013-09-15 19:35:00
12:55 PM,78.8,28.4,16,29.92,10.0,SW,9.2,-,N/A,,Clear,220,2013-09-15 19:55:00
1:15 PM,80.6,30.2,16,29.92,10.0,SW,10.4,16.1,N/A,,Clear,220,2013-09-15 20:15:00
1:35 PM,80.6,32.0,17,29.93,10.0,SW,6.9,-,N/A,,Clear,230,2013-09-15 20:35:00
1:55 PM,78.8,35.6,21,29.92,10.0,SW,3.5,-,N/A,,Clear,220,2013-09-15 20:55:00
2:15 PM,77.0,39.2,26,29.92,10.0,Calm,Calm,-,N/A,,Clear,0,2013-09-15 21:15:00
2:35 PM,78.8,37.4,23,29.92,10.0,SSW,6.9,-,N/A,,Clear,210,2013-09-15 21:35:00
2:55 PM,77.0,37.4,24,29.92,10.0,SW,5.8,-,N/A,,Clear,230,2013-09-15 21:55:00
3:15 PM,78.8,37.4,23,29.92,10.0,South,3.5,-,N/A,,Clear,170,2013-09-15 22:15:00
3:35 PM,78.8,35.6,21,29.92,10.0,SW,8.1,-,N/A,,Clear,220,2013-09-15 22:35:00
3:55 PM,78.8,35.6,21,29.92,10.0,Calm,Calm,-,N/A,,Clear,0,2013-09-15 22:55:00
4:15 PM,77.0,37.4,24,29.92,10.0,SW,6.9,-,N/A,,Clear,220,2013-09-15 23:15:00
4:35 PM,77.0,35.6,22,29.92,10.0,SSE,4.6,-,N/A,,Clear,150,2013-09-15 23:35:00
4:55 PM,77.0,33.8,21,29.91,10.0,SSW,5.8,-,N/A,,Clear,200,2013-09-15 23:55:00
5:15 PM,77.0,35.6,22,29.91,10.0,SSW,5.8,-,N/A,,Clear,210,2013-09-16 00:15:00
5:35 PM,77.0,32.0,19,29.91,10.0,Calm,Calm,-,N/A,,Clear,0,2013-09-16 00:35:00
5:55 PM,75.2,33.8,22,29.91,10.0,Calm,Calm,-,N/A,,Clear,0,2013-09-16 00:55:00
6:15 PM,75.2,35.6,24,29.90,10.0,Calm,Calm,-,N/A,,Clear,0,2013-09-16 01:15:00
6:35 PM,73.4,37.4,27,29.90,10.0,Calm,Calm,-,N/A,,Clear,0,2013-09-16 01:35:00
6:55 PM,73.4,35.6,25,29.90,10.0,Calm,Calm,-,N/A,,Clear,0,2013-09-16 01:55:00
7:15 PM,71.6,33.8,25,29.90,10.0,Calm,Calm,-,N/A,,Clear,0,2013-09-16 02:15:00
7:35 PM,69.8,32.0,25,29.90,10.0,Calm,Calm,-,N/A,,Clear,0,2013-09-16 02:35:00
7:55 PM,68.0,32.0,26,29.90,10.0,Calm,Calm,-,N/A,,Clear,0,2013-09-16 02:55:00
8:15 PM,68.0,32.0,26,29.91,10.0,Calm,Calm,-,N/A,,Clear,0,2013-09-16 03:15:00
8:35 PM,68.0,35.6,30,29.91,10.0,Calm,Calm,-,N/A,,Clear,0,2013-09-16 03:35:00
8:55 PM,68.0,35.6,30,29.92,10.0,Calm,Calm,-,N/A,,Clear,0,2013-09-16 03:55:00
9:15 PM,68.0,35.6,30,29.92,10.0,SE,3.5,-,N/A,,Clear,130,2013-09-16 04:15:00
9:35 PM,66.2,37.4,35,29.92,10.0,Calm,Calm,-,N/A,,Clear,0,2013-09-16 04:35:00
9:55 PM,66.2,37.4,35,29.92,10.0,Calm,Calm,-,N/A,,Clear,0,2013-09-16 04:55:00
10:15 PM,66.2,37.4,35,29.92,10.0,Calm,Calm,-,N/A,,Clear,0,2013-09-16 05:15:00
10:35 PM,66.2,37.4,35,29.92,10.0,Calm,Calm,-,N/A,,Clear,0,2013-09-16 05:35:00
10:55 PM,64.4,37.4,37,29.92,10.0,Calm,Calm,-,N/A,,Clear,0,2013-09-16 05:55:00
11:10 PM,66.2,37.4,35,29.93,10.0,Calm,Calm,-,N/A,,Clear,0,2013-09-16 06:10:00
11:35 PM,66.2,37.4,35,29.93,10.0,Calm,Calm,-,N/A,,Clear,0,2013-09-16 06:35:00
11:55 PM,66.2,37.4,35,29.93,10.0,Calm,Calm,-,N/A,,Clear,0,2013-09-16 06:55:00